Погода в Навои

Узбекистан     40°06′11″N   65°22′26″E
темп.,
°C
ветер,
м/с
пор.,
м/с
влажн.,
%
обл.,
%
осадки,
мм/ч
давл.,
гПа
погр.,
м
1 марта, пн
пн123:00+8вюв3329100 0.0 102022
02:00+7вюв343332 0.0 101926
05:00+6юв343916 0.0 101923
08:00+6юв34390 0.0 101928
11:00+13ю611230 0.0 1018721
14:00+17ююз1013190 0.0 10171401
17:00+17юз79210 0.0 10171284
20:00+11з33260 0.0 101923
2 марта, вт
вт223:00+9сз123733 0.0 102122
02:00+7с1142100 0.0 102122
05:00+8с2338100 0.0 102122
08:00+8ссв2237100 0.0 102222
11:00+14с342393 0.0 1022495
14:00+16ссз542180 0.0 1021979
17:00+15ссз652357 0.0 10211180
20:00+10с69350 0.0 1023267
3 марта, ср
ср323:00+8ссз353930 0.0 1024144
02:00+8с2243100 0.0 102458
05:00+7с2247100 0.0 102429
08:00+7с124895 0.0 102422
11:00+11ссз223567 0.0 1023654
14:00+14зсз343165 0.0 10211431
17:00+13зсз333139 0.0 10191307
20:00+10с23390 0.0 102033
4 марта, чт
чт423:00+8св12460 0.0 101922
02:00+8вюв22460 0.0 101822
05:00+7в23450 0.0 101722
08:00+8в345439 0.0 101833
11:00+14ююз673469 0.0 1017837
14:00+17юз794148 0.1 10171468
17:00+17юз8103424 0.1 10171886
20:00+11сз9134131 0.0 1021643
5 марта, пт
пт523:00+9ссз796065 0.1 1024443
02:00+5с778790 1.9 1026464
05:00+4ссз357679 2.7 1029323
08:00+4св23690 0.0 1030167
11:00+9в45490 0.0 10281045
14:00+12в44370 0.0 10241327
17:00+12всв443450 0.0 10211196
20:00+8в71358100 0.0 1019319